TimeCDT,TemperatureF,Dew PointF,Humidity,Sea Level PressureIn,VisibilityMPH,Wind Direction,Wind SpeedMPH,Gust SpeedMPH,PrecipitationIn,Events,Conditions,WindDirDegrees,DateUTC
12:17 AM,30.2,30.2,100,29.88,1.0,WNW,10.4,-,N/A,,Mist,300,2013-03-31 05:17:00
12:29 AM,30.2,30.2,100,29.87,2.0,WNW,9.2,-,N/A,,Overcast,300,2013-03-31 05:29:00
12:53 AM,32.0,30.0,92,29.92,2.5,WNW,9.2,-,N/A,,Overcast,300,2013-03-31 05:53:00
1:53 AM,30.9,30.0,96,29.92,2.5,West,13.8,-,N/A,,Overcast,280,2013-03-31 06:53:00
2:53 AM,30.9,28.9,92,29.90,3.0,West,11.5,-,N/A,,Overcast,270,2013-03-31 07:53:00
3:16 AM,30.2,28.4,93,29.84,5.0,West,11.5,-,N/A,,Overcast,270,2013-03-31 08:16:00
3:53 AM,32.0,28.9,88,29.87,7.0,West,12.7,-,N/A,,Overcast,270,2013-03-31 08:53:00
4:29 AM,32.0,28.4,87,29.82,6.0,WNW,15.0,20.7,N/A,,Overcast,290,2013-03-31 09:29:00
4:53 AM,32.0,28.9,88,29.86,6.0,WNW,15.0,-,N/A,,Overcast,290,2013-03-31 09:53:00
5:53 AM,32.0,28.0,85,29.86,6.0,WNW,15.0,24.2,N/A,,Overcast,290,2013-03-31 10:53:00
6:53 AM,30.9,28.0,89,29.87,6.0,NW,15.0,23.0,N/A,,Overcast,320,2013-03-31 11:53:00
7:05 AM,30.2,28.4,93,29.82,7.0,NW,13.8,-,N/A,,Overcast,320,2013-03-31 12:05:00
7:12 AM,30.2,28.4,93,29.82,7.0,NW,13.8,-,N/A,,Overcast,310,2013-03-31 12:12:00
7:53 AM,30.9,26.1,82,29.90,9.0,NNW,17.3,25.3,N/A,,Overcast,330,2013-03-31 12:53:00
8:43 AM,30.2,21.2,69,29.87,10.0,NNW,24.2,31.1,N/A,,Scattered Clouds,330,2013-03-31 13:43:00
8:53 AM,28.9,21.0,72,29.93,10.0,NNW,21.9,31.1,N/A,,Partly Cloudy,330,2013-03-31 13:53:00
9:53 AM,28.0,19.0,69,29.97,10.0,NNW,21.9,36.8,N/A,,Clear,340,2013-03-31 14:53:00
10:53 AM,28.0,16.0,61,29.98,10.0,NNW,26.5,35.7,N/A,,Partly Cloudy,330,2013-03-31 15:53:00
11:53 AM,27.0,12.9,56,30.01,10.0,NNW,24.2,33.4,N/A,,Clear,340,2013-03-31 16:53:00
12:53 PM,27.0,15.1,61,30.02,10.0,NNW,18.4,27.6,N/A,,Clear,330,2013-03-31 17:53:00
1:53 PM,27.0,14.0,58,30.04,10.0,NNW,20.7,29.9,N/A,,Clear,340,2013-03-31 18:53:00
2:53 PM,27.0,14.0,58,30.04,10.0,NNW,24.2,29.9,N/A,,Clear,330,2013-03-31 19:53:00
3:53 PM,26.1,14.0,60,30.06,10.0,NW,19.6,27.6,N/A,,Partly Cloudy,320,2013-03-31 20:53:00
4:53 PM,25.0,12.0,58,30.07,10.0,NNW,21.9,27.6,N/A,,Clear,330,2013-03-31 21:53:00
5:53 PM,24.1,12.9,62,30.09,10.0,NNW,20.7,26.5,N/A,,Clear,340,2013-03-31 22:53:00
6:53 PM,21.9,12.0,66,30.12,10.0,NNW,23.0,28.8,N/A,,Clear,340,2013-03-31 23:53:00
7:53 PM,19.9,10.0,65,30.14,10.0,NNW,13.8,19.6,N/A,,Clear,330,2013-04-01 00:53:00
8:53 PM,19.0,10.0,68,30.17,10.0,NNW,16.1,25.3,N/A,,Clear,330,2013-04-01 01:53:00
9:53 PM,18.0,10.0,71,30.20,10.0,NNW,15.0,20.7,N/A,,Clear,340,2013-04-01 02:53:00
10:53 PM,17.1,9.0,71,30.22,10.0,NNW,12.7,24.2,N/A,,Clear,340,2013-04-01 03:53:00
11:53 PM,16.0,7.0,68,30.22,10.0,NNW,16.1,-,N/A,,Clear,330,2013-04-01 04:53:00